Hourly Data Report for September 18, 2017

All times are specified in Local Standard Time (LST). Add 1 hour to adjust for Daylight Saving Time where and when it is observed.

BATHURST A
NEW BRUNSWICK

47°37'47.000" N
65°44'20.000" W
58.80 m
8100505
71574
ZBF

Download Data

Hourly Data (September 2017)
Hourly Data Report for September 18, 2017
Temp Definition
°C
Dew Point Temp Definition
°C
Rel Hum Definition
%
Wind Dir Definition
10's deg

Wind Spd Definition
km/h
Visibility Definition
km
Stn Press Definition
kPa
Hmdx Definition


Wind Chill Definition


Weather Definition


TIME
00:00 Legend Double Dagger 11.0 10.7 98 6 6 4.8 101.65     Drizzle,Fog
01:00 Legend Double Dagger 11.0 10.8 98 1 4 4.0 101.66     Drizzle,Fog
02:00 Legend Double Dagger 11.1 10.9 99 2 5 1.6 101.63     Drizzle,Fog
03:00 Legend Double Dagger 11.2 11.0 99 2 6 2.0 101.62     Drizzle,Fog
04:00 Legend Double Dagger 11.4 11.2 99 2 7 2.0 101.62     Drizzle,Fog
05:00 Legend Double Dagger 11.7 11.6 99 4 8 2.0 101.68     Drizzle,Fog
06:00 Legend Double Dagger 11.9 11.7 99 5 8 1.6 101.72     Drizzle,Fog
07:00 Legend Double Dagger 12.1 11.9 99 3 8 1.2 101.74     Drizzle,Fog
08:00 Legend Double Dagger 12.5 12.3 99 5 7 1.2 101.76     Drizzle,Fog
09:00 Legend Double Dagger 12.9 12.7 98 8 9 1.2 101.80     Drizzle,Fog
10:00 Legend Double Dagger 13.5 13.1 97 9 9 2.0 101.80     Drizzle,Fog
11:00 Legend Double Dagger 13.5 13.1 98 9 9 1.2 101.78     Drizzle,Fog
12:00 Legend Double Dagger 13.9 13.5 98 8 11 1.2 101.77     Drizzle,Fog
13:00 Legend Double Dagger 14.1 13.7 97 9 10 1.2 101.74     Drizzle,Fog
14:00 Legend Double Dagger 14.3 13.9 98 7 9 1.2 101.73     Drizzle,Fog
15:00 Legend Double Dagger 14.2 13.9 98 7 10 1.2 101.74     Drizzle,Fog
16:00 Legend Double Dagger 14.5 14.2 98 11 13 1.2 101.74     Drizzle,Fog
17:00 Legend Double Dagger 14.4 14.1 98 9 9 1.2 101.72     Drizzle,Fog
18:00 Legend Double Dagger 14.2 13.9 98 8 6 1.2 101.75     Drizzle,Fog
19:00 Legend Double Dagger 14.1 13.9 98 7 4 0.8 101.76     Fog
20:00 Legend Double Dagger 13.9 13.7 99 2 6 0.8 101.77     Fog
21:00 Legend Double Dagger 13.6 13.4 99 5 5 0.8 101.77     Fog
22:00 Legend Double Dagger 13.6 13.5 99 36 3 0.6 101.77     Fog
23:00 Legend Double Dagger 13.7 13.7 99 36 1 0.6 101.73     Fog

Notes on Data Quality.

Legend

  • E = Estimated
  • M = Missing
  • NA = Not Available
  • ‡ = Partner data that is not subject to review by the National Climate Archives
Date modified: